Etusivu
METAR-TAF:

METAR-TAF

Lentoasemat :

Trollhättan-Vänersborg, Ruotsi

Leveyspiiri: 58-19N, Pituuspiiri: 012-21E, korkeus merenpinnasta: 41 m

Tämänhetkinen sää

Tämä raportti tehtiin 37 minuuttia sitten, kello 21.50 UTC
Tuuli 8 kn etelästä/lounaasta, vaihdellen etelän ja lännen/lounaan välillä
Lämpötila 16°C
Kosteus 88%
Ilmanpaine 1013 hPa
Näkyvyys 10 km tai enemmän
heikkoa sadetta,

METAR: ESGT 172150Z AUTO 21008KT 180V240 9999 -RA OVC008/// 16/14 Q1013

Aika: 00:27 (22:27 UTC)


TAF: puuttuu

Säähavainnot ja -ennusteet yli 4000 lentoasemalta (METAR- ja TAF-raportit).

Käytössä olevat sääasemat on merkitty karttaan keltaisilla ja punaisilla pisteillä.

Aseta hiiri pisteen päälle nähdäksesi sääaseman nimen.

Klikkaa sitten nähdäksesi säähavainnot ja -ennusteet.

Kartan vaihtaminen: klikkaa mustalla rastilla varustettuja vihreitä pisteitä, niin voit zoomata sisään; viivalla varustettua vihreää pistettä, niin voit zoomata ulos tai vihreitä nuolia, niin pääset viereisille kartoille.


METAR-TAF: